Ashland, WI

8:46 AM CDT on June 24, 2018 (GMT -0500)
Kennedy Memorial

Weather History for KASX - September, 2017

Change the Weather History Date:

Thursday, September 14, 2017

  Actual Average Record
Temperature  
Mean Temperature 71 °F 58 °F  
Max Temperature 86 °F 69 °F 96 °F (1927)
Min Temperature 56 °F 45 °F 26 °F (2007)
Degree Days  
Heating Degree Days 0 8  
Month to date heating degree days 82 88  
Cooling Degree Days 6 1  
Month to date cooling degree days 17 14  
Growing Degree Days 20 (Base 50)    
Moisture  
Dew Point 61 °F    
Average Humidity 76    
Maximum Humidity 100    
Minimum Humidity 51    
Precipitation  
Precipitation 0.01 in 0.11 in 1.43 in (1967)
Month to date precipitation 0.44 1.54  
Sea Level Pressure  
Sea Level Pressure 29.74 in    
Wind  
Wind Speed 6 mph (SE)    
Max Wind Speed 16 mph    
Max Gust Speed 20 mph    
Visibility 8 miles    
Events Rain    
T = Trace of Precipitation, MM = Missing Value Source: NWS Daily Summary

Daily Weather History Graph

Daily Weather History Graph

Search for Another Location

Airport or City:

Astronomy

Sep. 14, 2017 Rise Set
Actual Time 6:40 AM CDT 7:16 PM CDT
Civil Twilight 6:10 AM CDT 7:47 PM CDT
Nautical Twilight 5:34 AM CDT 8:22 PM CDT
Astronomical Twilight 4:56 AM CDT 9:00 PM CDT
Moon 12:21 AM CDT (9/14) 3:50 PM CDT (9/14)
Length of Visible Light 13h 36m
Length of Day
12h 36m
Waning Crescent, 34% of the Moon is Illuminated
Sep 14
Waning Crescent
Sep 20
New
Sep 27
First Quarter
Oct 5
Full
Oct 12
Last Quarter

Hourly Weather History & Observations

Time (CDT) Temp. Heat Index Dew Point Humidity Pressure Visibility Wind Dir Wind Speed Gust Speed Precip Events Conditions
12:53 AM 61.0 °F - 60.1 °F 97% 29.71 in 9.0 mi Calm Calm - N/A   Clear
1:53 AM 61.0 °F - 60.1 °F 97% 29.72 in 6.0 mi Calm Calm - N/A   Clear
2:31 AM 57.9 °F - 57.9 °F 100% 29.72 in 1.8 mi South 3.5 mph - N/A   Clear
2:44 AM 57.0 °F - 55.9 °F 96% 29.71 in 3.0 mi South 4.6 mph - N/A   Clear
2:53 AM 57.0 °F - 55.9 °F 96% 29.70 in 10.0 mi South 4.6 mph - N/A   Clear
3:53 AM 60.1 °F - 59.0 °F 96% 29.70 in 10.0 mi Calm Calm - N/A   Clear
4:53 AM 61.0 °F - 59.0 °F 93% 29.72 in 10.0 mi Calm Calm - N/A   Clear
5:29 AM 57.0 °F - 55.9 °F 96% 29.73 in 1.8 mi Calm Calm - N/A   Clear
5:53 AM 57.0 °F - 55.9 °F 96% 29.72 in 1.8 mi Calm Calm - N/A   Clear
5:56 AM 57.0 °F - 55.9 °F 96% 29.73 in 3.0 mi Calm Calm - N/A   Clear
6:04 AM 57.0 °F - 55.9 °F 96% 29.73 in 1.8 mi Calm Calm - N/A   Clear
6:14 AM 55.9 °F - 55.9 °F 100% 29.73 in 4.0 mi SSW 3.5 mph - N/A   Clear
6:22 AM 55.9 °F - 55.9 °F 100% 29.73 in 2.0 mi SSW 5.8 mph - N/A   Clear
6:32 AM 55.9 °F - 55.0 °F 97% 29.73 in 8.0 mi SSW 6.9 mph - N/A   Clear
6:53 AM 59.0 °F - 57.0 °F 93% 29.73 in 9.0 mi SSW 5.8 mph - N/A   Clear
7:53 AM 64.0 °F - 61.0 °F 90% 29.75 in 10.0 mi Calm Calm - N/A   Clear
8:53 AM 66.9 °F - 62.1 °F 84% 29.75 in 10.0 mi Calm Calm - N/A   Clear
9:53 AM 71.1 °F - 62.1 °F 73% 29.74 in 10.0 mi South 5.8 mph - N/A   Clear
10:53 AM 75.0 °F - 64.0 °F 69% 29.73 in 10.0 mi South 5.8 mph - N/A   Clear
11:53 AM 78.1 °F - 66.0 °F 66% 29.73 in 10.0 mi Variable 3.5 mph - N/A   Clear
12:53 PM 82.9 °F 85.4 °F 66.9 °F 58% 29.73 in 10.0 mi SW 6.9 mph - N/A   Clear
1:53 PM 84.0 °F 86.3 °F 66.0 °F 55% 29.73 in 10.0 mi SSW 8.1 mph - N/A   Clear
2:53 PM 86.0 °F 88.2 °F 66.0 °F 51% 29.72 in 10.0 mi SSW 8.1 mph - N/A   Clear
3:53 PM 82.0 °F 85.5 °F 69.1 °F 65% 29.71 in 10.0 mi North 6.9 mph - N/A   Clear
4:53 PM 78.1 °F - 66.9 °F 68% 29.71 in 10.0 mi NE 8.1 mph - N/A   Clear
5:53 PM 72.0 °F - 64.0 °F 76% 29.73 in 10.0 mi North 9.2 mph - N/A   Clear
6:53 PM 66.0 °F - 62.1 °F 87% 29.75 in 10.0 mi NNE 8.1 mph - N/A   Clear
7:53 PM 63.0 °F - 61.0 °F 93% 29.77 in 10.0 mi Calm Calm - N/A   Clear
8:53 PM 64.9 °F - 62.1 °F 90% 29.77 in 10.0 mi NNE 11.5 mph - N/A   Partly Cloudy
9:15 PM 64.0 °F - 62.1 °F 93% 29.78 in 10.0 mi NNE 16.1 mph - N/A   Scattered Clouds
9:23 PM 63.0 °F - 61.0 °F 93% 29.80 in 10.0 mi NNE 9.2 mph - N/A   Mostly Cloudy
9:39 PM 63.0 °F - 60.1 °F 90% 29.81 in 10.0 mi NNE 12.7 mph - N/A   Overcast
9:53 PM 62.1 °F - 60.1 °F 93% 29.82 in 10.0 mi NNE 13.8 mph 19.6 mph 0.00 in Rain Light Rain
10:51 PM 60.8 °F - 60.8 °F 100% 29.83 in 9.0 mi ENE 10.4 mph - 0.01 in   Overcast
10:53 PM 61.0 °F - 60.1 °F 97% 29.83 in 9.0 mi ENE 9.2 mph - 0.01 in   Overcast
11:53 PM 61.0 °F - 60.1 °F 97% 29.82 in 5.0 mi East 5.8 mph - N/A   Overcast